Вернуться в каталог

CZ-6A DEB

АктивенPO
NORAD 61431·DEBRIS·🇨🇳 China

Запущен Aug 6, 2024 с Taiyuan Satellite Launch Center

Loading…

Ближайшие Пролёты (ближайшие 24 часа)

TLE

СвежийSource: Space-Track

Эпоха: Sep 14, 2026, 06:36 UTC

1 61431U 24140YY  26257.27531684  .00001151  00000-0  15498-3 0  9992
2 61431  89.1224 269.9494 0157165 249.7630 108.6631 14.70254883110539

Отслеживайте CZ-6A DEB в реальном времени с AllMySat

Download on the App Store